Location: Kuffner-Sternwarte
(48.2130°N, 16.2960°E)
Time: 22:27:36
(UTC+02:00)

COROT - Pass Details

Date: 30 March 2017
Orbit: 602 x 888 km, 90.0° (Epoch: 26 July)

Event Time Altitude Azimuth Distance (km) Brightness Sun altitude
Rises 01:47:54 0° 356° (N) 3,155 10.1 -37.0°
Reaches altitude 10° 01:50:11 10° 352° (N) 2,273 9.1 -36.9°
Enters shadow 01:52:01 22° 343° (NNW) 1,615 8.1 -36.8°
